Troy, AL

12:32 PM CDT on October 18, 2017 (GMT -0500)
Troy Municipal

Weather History for KTOI - May, 2014

Change the Weather History Date:

Wednesday, May 14, 2014

  Actual Average Record
Temperature  
Mean Temperature 71 °F 71 °F  
Max Temperature 77 °F 84 °F 95 °F (1998)
Min Temperature 64 °F 58 °F 46 °F (2013)
Cooling Degree Days 6 6  
Month to date cooling degree days 88 69  
Year to date cooling degree days 171 146  
Growing Degree Days 20 (Base 50)    
Moisture  
Dew Point 67 °F    
Average Humidity 85    
Maximum Humidity 93    
Minimum Humidity 76    
Precipitation  
Precipitation 2.64 in 0.08 in 2.64 in (2014)
Month to date precipitation 4.18 1.29  
Year to date precipitation 28.90 20.44  
Sea Level Pressure  
Sea Level Pressure 29.98 in    
Wind  
Wind Speed 3 mph (NE)    
Max Wind Speed 16 mph    
Max Gust Speed 22 mph    
Visibility 4 miles    
Events Fog , Rain , Thunderstorm    
T = Trace of Precipitation, MM = Missing Value Source: NWS Daily Summary

Daily Weather History Graph

Daily Weather History Graph

Search for Another Location

Airport or City:

Trip Planner

Search our weather history database for the weather conditions in past years. The results will help you decide how hot, cold, wet, or windy it might be!

Date:

Astronomy

May. 14, 2014 Rise Set
Actual Time 5:47 AM CDT 7:33 PM CDT
Civil Twilight 5:20 AM CDT 8:00 PM CDT
Nautical Twilight 4:48 AM CDT 8:32 PM CDT
Astronomical Twilight 4:14 AM CDT 9:06 PM CDT
Moon 7:39 PM CDT (5/14) 5:42 AM CDT (5/14)
Length of Visible Light 14h 39m
Length of Day
13h 45m
Full, 100% of the Moon is Illuminated
May 14
Full
May 14
Full
May 21
Last Quarter
May 28
New
Jun 5
First Quarter

Hourly Weather History & Observations

Time (CDT) Temp. Dew Point Humidity Pressure Visibility Wind Dir Wind Speed Gust Speed Precip Events Conditions
12:53 AM 66.9 °F 64.0 °F 90% 30.07 in 10.0 mi Calm Calm - N/A   Clear
1:53 AM 64.9 °F 63.0 °F 93% 30.06 in 7.0 mi Calm Calm - N/A   Clear
2:53 AM 66.0 °F 63.0 °F 90% 30.04 in 8.0 mi Calm Calm - N/A   Clear
3:53 AM 66.9 °F 63.0 °F 87% 30.04 in 9.0 mi Calm Calm - N/A   Clear
4:53 AM 66.0 °F 63.0 °F 90% 30.05 in 9.0 mi Calm Calm - N/A   Clear
5:53 AM 66.0 °F 63.0 °F 90% 30.04 in 8.0 mi ENE 3.5 mph - N/A   Clear
6:53 AM 70.0 °F 66.0 °F 87% 30.04 in 9.0 mi East 3.5 mph - N/A   Scattered Clouds
7:53 AM 73.9 °F 68.0 °F 82% 30.05 in 10.0 mi SE 9.2 mph - N/A   Partly Cloudy
8:53 AM 75.0 °F 68.0 °F 79% 30.04 in 10.0 mi ESE 6.9 mph - N/A   Mostly Cloudy
9:53 AM 75.0 °F 68.0 °F 79% 30.05 in 10.0 mi South 4.6 mph - N/A   Overcast
10:42 AM 77.0 °F 69.1 °F 76% 30.04 in 10.0 mi ESE 5.8 mph - N/A   Mostly Cloudy
10:50 AM 77.0 °F 69.8 °F 78% 30.04 in 10.0 mi ESE 5.8 mph - N/A   Overcast
10:53 AM 77.0 °F 69.1 °F 76% 30.02 in 10.0 mi ESE 6.9 mph - N/A   Overcast
11:20 AM 75.9 °F 70.0 °F 82% 30.03 in 10.0 mi Calm Calm - 0.00 in Rain , Thunderstorm Light Rain
11:53 AM 75.9 °F 70.0 °F 82% 30.01 in 10.0 mi Calm Calm - 0.03 in   Overcast
12:02 PM 75.0 °F 71.1 °F 87% 30.01 in 10.0 mi NNE 3.5 mph - 0.00 in Rain , Thunderstorm Light Rain
12:44 PM 73.9 °F 70.0 °F 87% 29.99 in 6.0 mi ENE 4.6 mph - 0.04 in Rain , Thunderstorm Light Thunderstorms and Rain
12:53 PM 73.9 °F 70.0 °F 87% 29.97 in 8.0 mi ENE 4.6 mph - 0.04 in Rain , Thunderstorm Light Rain
1:02 PM 73.9 °F 70.0 °F 87% 29.98 in 8.0 mi NNE 3.5 mph - 0.01 in Rain Light Rain
1:13 PM 73.9 °F 71.1 °F 91% 29.99 in 8.0 mi WSW 4.6 mph - 0.01 in Rain , Thunderstorm Light Thunderstorms and Rain
1:21 PM 73.0 °F 71.1 °F 93% 30.00 in 2.0 mi West 5.8 mph - 0.04 in Rain , Thunderstorm Rain
1:23 PM 73.0 °F 71.1 °F 93% 30.00 in 1.5 mi West 5.8 mph - 0.07 in Rain , Thunderstorm Heavy Rain
1:26 PM 73.0 °F 71.1 °F 93% 30.00 in 1.0 mi West 6.9 mph - 0.10 in Rain , Thunderstorm Heavy Rain
1:38 PM 71.1 °F 68.0 °F 90% 29.99 in 1.0 mi West 12.7 mph 18.4 mph 0.23 in Rain , Thunderstorm Heavy Rain
1:42 PM 70.0 °F 66.0 °F 87% 29.98 in 1.2 mi West 11.5 mph 20.7 mph 0.27 in Rain , Thunderstorm Heavy Rain
1:44 PM 69.1 °F 66.0 °F 90% 29.97 in 1.5 mi WNW 11.5 mph 20.7 mph 0.30 in Rain , Thunderstorm Heavy Rain
1:46 PM 69.1 °F 66.0 °F 90% 29.98 in 1.5 mi West 11.5 mph 20.7 mph 0.33 in Rain , Thunderstorm Heavy Thunderstorms and Rain
1:48 PM 69.8 °F 66.2 °F 88% 29.99 in 1.2 mi West 13.8 mph 20.7 mph 0.36 in Rain , Thunderstorm Heavy Thunderstorms and Rain
1:53 PM 68.0 °F 66.0 °F 93% 29.98 in 0.8 mi SW 11.5 mph 23.0 mph 0.56 in Rain , Thunderstorm Heavy Thunderstorms and Rain
2:03 PM 68.0 °F 66.0 °F 93% 30.00 in 1.2 mi SSW 9.2 mph - 0.07 in Rain , Thunderstorm Thunderstorms and Rain
2:05 PM 68.0 °F 66.0 °F 93% 30.00 in 2.0 mi South 6.9 mph - 0.08 in Rain , Thunderstorm Thunderstorms and Rain
2:08 PM 68.0 °F 66.0 °F 93% 30.00 in 3.0 mi South 9.2 mph - 0.09 in Rain , Thunderstorm Thunderstorms and Rain
2:13 PM 68.0 °F 66.0 °F 93% 29.99 in 1.5 mi SW 5.8 mph - 0.17 in Rain , Thunderstorm Thunderstorms and Rain
2:15 PM 68.0 °F 66.0 °F 93% 29.99 in 1.0 mi SW 5.8 mph - 0.19 in Rain , Thunderstorm Heavy Thunderstorms and Rain
2:24 PM 69.1 °F 66.0 °F 90% 29.97 in 1.2 mi Calm Calm - 0.24 in Rain , Thunderstorm Light Rain
2:26 PM 69.1 °F 66.0 °F 90% 29.97 in 1.8 mi NW 3.5 mph - 0.25 in Rain , Thunderstorm Rain
2:33 PM 69.1 °F 66.0 °F 90% 29.97 in 2.0 mi Calm Calm - 0.29 in Rain , Thunderstorm Heavy Rain
2:43 PM 69.1 °F 66.0 °F 90% 29.96 in 7.0 mi ENE 3.5 mph - 0.30 in Rain , Thunderstorm Light Rain
2:53 PM 69.1 °F 66.9 °F 93% 29.95 in 6.0 mi North 5.8 mph - 0.31 in Rain , Thunderstorm Light Rain
3:04 PM 69.1 °F 66.9 °F 93% 29.96 in 6.0 mi East 4.6 mph - 0.01 in Rain Rain
3:20 PM 69.1 °F 66.9 °F 93% 29.96 in 2.5 mi NW 3.5 mph - 0.08 in Rain , Thunderstorm Heavy Thunderstorms and Rain
3:36 PM 69.1 °F 66.9 °F 93% 29.95 in 4.0 mi NE 5.8 mph - 0.12 in Rain , Thunderstorm Thunderstorms and Rain
3:53 PM 69.1 °F 66.9 °F 93% 29.94 in 3.0 mi NE 3.5 mph - 0.18 in Rain Heavy Rain
3:56 PM 69.1 °F 66.9 °F 93% 29.95 in 1.8 mi NNE 5.8 mph - 0.04 in Rain Heavy Rain
4:05 PM 69.1 °F 66.0 °F 90% 29.94 in 3.0 mi NNE 5.8 mph - 0.06 in Rain Light Rain
4:18 PM 69.1 °F 66.9 °F 93% 29.96 in 1.8 mi SE 5.8 mph - 0.18 in Rain Rain
4:21 PM 69.1 °F 66.9 °F 93% 29.96 in 1.0 mi Calm Calm - 0.21 in Rain Heavy Rain
4:26 PM 69.1 °F 66.0 °F 90% 29.96 in 0.8 mi Calm Calm - 0.24 in Rain Heavy Rain
4:28 PM 69.1 °F 66.9 °F 93% 29.96 in 1.2 mi Calm Calm - 0.24 in Rain Rain
4:30 PM 69.1 °F 66.9 °F 93% 29.96 in 1.8 mi Calm Calm - 0.24 in Rain Rain
4:37 PM 69.1 °F 66.9 °F 93% 29.96 in 1.8 mi NNW 3.5 mph - 0.28 in Rain Heavy Rain
4:45 PM 69.1 °F 66.9 °F 93% 29.95 in 3.0 mi North 3.5 mph - 0.29 in Rain Light Rain
4:53 PM 69.1 °F 66.9 °F 93% 29.94 in 10.0 mi NNW 3.5 mph - 0.30 in Rain Light Rain
5:11 PM 69.1 °F 66.9 °F 93% 29.96 in 2.0 mi WNW 3.5 mph - 0.05 in Rain Heavy Rain
5:13 PM 69.1 °F 66.9 °F 93% 29.96 in 1.2 mi Calm Calm - 0.07 in Rain Heavy Rain
5:16 PM 69.1 °F 66.9 °F 93% 29.97 in 1.0 mi SE 4.6 mph - 0.12 in Rain Heavy Rain
5:20 PM 69.1 °F 66.0 °F 90% 29.97 in 0.5 mi Calm Calm - 0.22 in Fog , Rain Heavy Rain
5:32 PM 69.1 °F 66.0 °F 90% 29.95 in 1.0 mi NNE 5.8 mph - 0.39 in Rain Light Rain
5:34 PM 69.1 °F 66.0 °F 90% 29.95 in 1.5 mi NNE 6.9 mph - 0.39 in Rain , Thunderstorm Light Rain
5:36 PM 69.1 °F 66.0 °F 90% 29.95 in 3.0 mi North 3.5 mph - 0.40 in Rain , Thunderstorm Rain
5:42 PM 69.1 °F 66.0 °F 90% 29.95 in 1.8 mi Variable 3.5 mph - 0.45 in Rain , Thunderstorm Heavy Rain
5:44 PM 69.1 °F 66.0 °F 90% 29.96 in 1.0 mi Calm Calm - 0.49 in Rain , Thunderstorm Heavy Rain
5:51 PM 68.0 °F 66.2 °F 94% 29.96 in 0.8 mi Calm Calm - 0.56 in Rain , Thunderstorm Heavy Rain
5:53 PM 68.0 °F 66.0 °F 93% 29.95 in 0.8 mi ENE 3.5 mph - 0.58 in Rain , Thunderstorm Heavy Rain
5:56 PM 68.0 °F 66.0 °F 93% 29.95 in 1.2 mi NE 4.6 mph - 0.04 in Rain , Thunderstorm Heavy Rain
5:58 PM 69.1 °F 66.0 °F 90% 29.95 in 1.8 mi NNE 3.5 mph - 0.04 in Rain , Thunderstorm Heavy Rain
6:07 PM 68.0 °F 66.0 °F 93% 29.96 in 2.5 mi SE 3.5 mph - 0.08 in Rain , Thunderstorm Rain
6:14 PM 68.0 °F 66.0 °F 93% 29.96 in 1.5 mi Calm Calm - 0.12 in Rain , Thunderstorm Heavy Rain
6:17 PM 68.0 °F 66.0 °F 93% 29.96 in 2.0 mi Calm Calm - 0.13 in Rain , Thunderstorm Rain
6:21 PM 68.0 °F 66.0 °F 93% 29.96 in 3.0 mi Calm Calm - 0.14 in Rain Light Rain
6:28 PM 68.0 °F 66.0 °F 93% 29.96 in 5.0 mi WNW 3.5 mph - 0.14 in Rain , Thunderstorm Light Rain
6:38 PM 68.0 °F 66.0 °F 93% 29.97 in 1.8 mi Calm Calm - 0.19 in Rain Rain
6:41 PM 68.0 °F 66.0 °F 93% 29.97 in 1.0 mi Calm Calm - 0.22 in Rain , Thunderstorm Heavy Rain
6:51 PM 68.0 °F 66.2 °F 94% 29.96 in 1.5 mi Variable 3.5 mph - 0.29 in Rain , Thunderstorm Heavy Rain
6:53 PM 68.0 °F 66.0 °F 93% 29.96 in 1.5 mi Calm Calm - 0.30 in Rain , Thunderstorm Heavy Rain
6:55 PM 68.0 °F 66.0 °F 93% 29.97 in 1.8 mi Calm Calm - 0.01 in Rain Heavy Rain
6:59 PM 68.0 °F 66.0 °F 93% 29.98 in 2.5 mi SE 3.5 mph - 0.01 in Rain , Thunderstorm Rain
7:07 PM 68.0 °F 66.0 °F 93% 29.99 in 5.0 mi SSW 3.5 mph - 0.03 in Rain , Thunderstorm Rain
7:18 PM 68.0 °F 66.0 °F 93% 30.00 in 4.0 mi South 4.6 mph - 0.07 in Rain Rain
7:53 PM 68.0 °F 66.0 °F 93% 29.97 in 4.0 mi Calm Calm - 0.19 in Rain Rain
8:53 PM 66.9 °F 64.9 °F 93% 29.97 in 8.0 mi SE 5.8 mph - 0.09 in Rain Rain
9:53 PM 68.0 °F 64.0 °F 87% 29.99 in 10.0 mi ESE 4.6 mph - 0.04 in Rain Light Rain
10:53 PM 66.0 °F 63.0 °F 90% 29.98 in 10.0 mi Calm Calm - 0.02 in   Clear
11:53 PM 66.0 °F 64.0 °F 93% 29.96 in 10.0 mi Calm Calm - N/A   Clear